Location: Juzet
(42.9779°N, 0.7597°E)
Time: 08:33:09
(UTC+00:00)

Meteor 1-18 Rocket - Pass Details

Date: 14 July 2020
Orbit: 837 x 909 km, 81.2° (Epoch: 05 August)

Event Time Altitude Azimuth Distance (km) Brightness Sun altitude
Rises 01:02:48 0° 350° (N) 3,513 8.5 -23.9°
Reaches altitude 10° 01:05:17 10° 352° (N) 2,559 7.6 -23.8°
Maximum altitude 01:11:07 81° 79° (E) 890 4.2 -23.5°
Enters shadow 01:12:51 47° 160° (SSE) 1,136 4.5 -23.4°
